Regional Weather Roundup
Issued by NWS Albany, NY

Home | Current Version | Previous Version | Graphics & Text | Print | Product List | Glossary On
Versions: 1 2 3 4 5 6 7 8 9 10 11 12 13 14 15 16 17 18 19 20 21 22 23 24 25 26 27 28 29 30 31 32 33 34 35 36 37 38 39 40 41 42 43 44 45 46 47 48 49 50
000
ASUS41 KALY 102010
RWRALY

NEW YORK STATE HOURLY WEATHER ROUNDUP
NATIONAL WEATHER SERVICE ALBANY NY
300 PM EST WED FEB 10 2016

NOTE: "FAIR" INDICATES FEW OR NO CLOUDS BELOW 12,000 FEET WITH NO
SIGNIFICANT WEATHER AND/OR NO OBSTRUCTIONS TO VISIBILITY.

NYZ032-033-038>043-046>054-057>066-NYZ062>081-102100-
EAST


CITY           SKY/WX    TMP DP  RH WIND       PRES   REMARKS
ALBANY         CLOUDY    35  23  61 NW9       29.56S WCI  28
GLENS FALLS    CLOUDY    36  21  54 W12       29.52R WCI  28
POUGHKEEPSIE   CLOUDY    39  19  44 W14       29.58R WCI  31
NEWBURGH       CLOUDY    36  19  51 W12G17    29.58R WCI  27
MONTGOMERY     CLOUDY    37  17  44 W10G20    29.58R WCI  30
WHITE PLAINS   PTSUNNY   37  18  46 NW15G21   29.58R WCI  28
ISLIP          PTSUNNY   38  23  55 W12       29.58R WCI  30
NEW YORK CITY  CLOUDY    39  20  46 W16       29.62R WCI  30
CENTRAL PARK   CLOUDY    38  19  46 W10G18    29.64R WCI  31
$$

NYZ005>009-017-018-044>046-055-056-102100-
CENTRAL


CITY           SKY/WX    TMP DP  RH WIND       PRES   REMARKS
FULTON         SNOW      30  25  81 W10       29.61R VSB 1/2 WCI  21
SYRACUSE       FLURRIES  29  24  82 W20       29.60R WCI  16
ROME           LGT SNOW  29  25  85 W10       29.60R FOG     WCI  20
ELMIRA         FLURRIES  30  19  63 W10       29.62R WCI  21
BINGHAMTON     LGT SNOW  26  21  81 W10       29.56R WCI  16
MONTICELLO     CLOUDY    30  19  64 W13G21    29.57R WCI  20
$$

NYZ026>034-041>043-102100-
NORTH


CITY           SKY/WX    TMP DP  RH WIND       PRES   REMARKS
WATERTOWN      LGT SNOW  25  20  81 W8        29.60R WCI  16
FORT DRUM      NOT AVBL
MASSENA        LGT SNOW  23  17  78 W9        29.58R WCI  13
SARANAC LAKE   FLURRIES  24  19  81 W12G20    29.43R WCI  13
PLATTSBURGH    LGT SNOW  25  21  85 N12       29.50R FOG     WCI  14
$$

NYZ001>004-010>016-019>021-102100-
WEST


CITY           SKY/WX    TMP DP  RH WIND       PRES   REMARKS
NIAGARA FALLS  FLURRIES  26  18  71 W18       29.66R WCI  13
BUFFALO        FLURRIES  25  17  72 W20       29.65R WCI  11
DUNKIRK        CLOUDY    24  16  71 W18G28    29.71R WCI  10
JAMESTOWN      CLOUDY    19  14  79 W16G24    29.64R VSB 3/4 WCI   5
WELLSVILLE     SNOW      22  17  81 W9G18     29.59S VSB 1/2 WCI  12
ROCHESTER      FLURRIES  29  17  61 W21G32    29.63R WCI  16
PENN YAN       CLOUDY    29  13  51 W21G32    29.62R WCI  16
$$

             KEY
       WCI = WIND CHILL INDEX
       VSB = VISIBILITY
       HX  = HEAT INDEX
$$



USA.gov is the U.S. government's official web portal to all federal, state and local government web resources and services.